{"data":{"norad_id":55148,"epoch":"2026-05-25T00:03:33.723360Z","epoch_age_seconds":68020,"freshness":"FRESH","line1":"1 55148U 23004J   26145.00247365 -.00000141  00000+0 -41977-3 0  9995","line2":"2 55148  87.8948 324.8369 0000897  87.7384 272.3848 13.13468804167135","mean_motion":13.13468804,"eccentricity":8.97e-5,"inclination_deg":87.8948,"raan_deg":324.8369,"arg_perigee_deg":87.7384,"mean_anomaly_deg":272.3848,"bstar":-0.00041977,"rev_number":16713,"period_min":109.63336134171,"perigee_km":1209.0893708316,"apogee_km":1210.4506413485,"semimajor_km":7587.9070060901,"source":"CELESTRAK","updated_at":"2026-05-25T13:38:22.640777Z"}}